Back to catalog

STARLINK-34649

AliveCommunicationsVLEO
NORAD 64798·PAYLOAD·🇺🇸 United States

Launched Jul 16, 2025 from Vandenberg Space Force Base

Loading…

Next Passes (next 24 hours)

TLE

FreshSource: CelesTrak SupGP

Epoch: Sep 15, 2026, 02:53 UTC

1 64798C 25150J   26258.12062500  .00038280  00000+0  32081-2 0  2580
2 64798  70.0032  16.9200 0003291 268.6687 305.4296 14.98309951    13

Track STARLINK-34649 in real time with AllMySat

Download on the App Store